Time,TemperatureF,DewpointF,PressureIn,WindDirection,WindDirectionDegrees,WindSpeedMPH,WindSpeedGustMPH,Humidity,HourlyPrecipIn,Conditions,Clouds,dailyrainin,SolarRadiationWatts/m^2,SoftwareType,DateUTC
2013-01-08 00:02:00,26.0,2.0,-100.00,NW,322,8.0,10.0,35,0.00,,,0.00,0.000000,,2013-01-08 07:02:00,
2013-01-08 00:11:00,26.0,2.0,-100.00,NW,322,8.0,10.0,35,0.00,,,0.00,0.000000,,2013-01-08 07:11:00,
2013-01-08 00:32:00,28.0,-1.0,-100.00,NW,326,5.0,9.0,28,0.00,,,0.00,0.000000,,2013-01-08 07:32:00,
2013-01-08 00:42:00,28.0,-1.0,-100.00,NW,326,5.0,9.0,28,0.00,,,0.00,0.000000,,2013-01-08 07:42:00,
2013-01-08 00:52:00,28.0,-1.0,-100.00,NW,326,5.0,9.0,28,0.00,,,0.00,0.000000,,2013-01-08 07:52:00,
2013-01-08 01:02:00,28.0,-1.0,-100.00,NW,326,5.0,9.0,28,0.00,,,0.00,0.000000,,2013-01-08 08:02:00,
2013-01-08 01:12:00,27.0,0.0,-100.00,West,281,4.0,6.0,31,-99.99,,,0.00,0.000000,,2013-01-08 08:12:00,
2013-01-08 01:42:00,27.0,0.0,-100.00,West,281,4.0,6.0,31,-99.99,,,0.00,0.000000,,2013-01-08 08:42:00,
2013-01-08 01:53:00,27.0,0.0,-100.00,West,281,4.0,6.0,31,-99.99,,,0.00,0.000000,,2013-01-08 08:53:00,
2013-01-08 02:12:00,27.0,5.0,-100.00,West,271,6.0,8.0,39,0.00,,,0.00,0.000000,,2013-01-08 09:12:00,
2013-01-08 02:33:00,27.0,5.0,-100.00,West,271,6.0,8.0,39,0.00,,,0.00,0.000000,,2013-01-08 09:33:00,
2013-01-08 02:42:00,27.0,5.0,-100.00,West,271,6.0,8.0,39,0.00,,,0.00,0.000000,,2013-01-08 09:42:00,
2013-01-08 02:52:00,27.0,5.0,-100.00,West,271,6.0,8.0,39,0.00,,,0.00,0.000000,,2013-01-08 09:52:00,
2013-01-08 03:33:00,26.0,5.0,-100.00,WNW,283,5.0,9.0,40,0.00,,,0.00,0.000000,,2013-01-08 10:33:00,
2013-01-08 03:42:00,26.0,5.0,-100.00,WNW,283,5.0,9.0,40,0.00,,,0.00,0.000000,,2013-01-08 10:42:00,
2013-01-08 03:52:00,26.0,5.0,-100.00,WNW,283,5.0,9.0,40,0.00,,,0.00,0.000000,,2013-01-08 10:52:00,
2013-01-08 04:11:00,26.0,5.0,-100.00,WNW,283,5.0,9.0,40,0.00,,,0.00,0.000000,,2013-01-08 11:11:00,
2013-01-08 04:33:00,24.0,4.0,-100.00,NW,306,2.0,6.0,41,-99.99,,,-99.99,0.000000,,2013-01-08 11:33:00,
2013-01-08 04:42:00,24.0,4.0,-100.00,NW,306,2.0,6.0,41,-99.99,,,-99.99,0.000000,,2013-01-08 11:42:00,
2013-01-08 04:53:00,24.0,4.0,-100.00,NW,306,2.0,6.0,41,-99.99,,,-99.99,0.000000,,2013-01-08 11:53:00,
2013-01-08 05:11:00,24.0,4.0,-100.00,NW,306,2.0,6.0,41,-99.99,,,-99.99,0.000000,,2013-01-08 12:11:00,
2013-01-08 05:12:00,24.0,5.0,-100.00,SSE,156,3.0,6.0,43,0.00,,,0.00,0.000000,,2013-01-08 12:12:00,
2013-01-08 05:33:00,24.0,5.0,-100.00,SSE,156,3.0,6.0,43,0.00,,,0.00,0.000000,,2013-01-08 12:33:00,
2013-01-08 05:43:00,24.0,5.0,-100.00,SSE,156,3.0,6.0,43,0.00,,,0.00,0.000000,,2013-01-08 12:43:00,
2013-01-08 05:53:00,24.0,5.0,-100.00,SSE,156,3.0,6.0,43,0.00,,,0.00,0.000000,,2013-01-08 12:53:00,
2013-01-08 06:12:00,22.0,2.0,-100.00,NW,323,4.0,7.0,42,0.00,,,0.00,0.000000,,2013-01-08 13:12:00,
2013-01-08 06:33:00,22.0,2.0,-100.00,NW,323,4.0,7.0,42,0.00,,,0.00,0.000000,,2013-01-08 13:33:00,
2013-01-08 06:43:00,22.0,2.0,-100.00,NW,323,4.0,7.0,42,0.00,,,0.00,0.000000,,2013-01-08 13:43:00,
2013-01-08 06:53:00,22.0,2.0,-100.00,NW,323,4.0,7.0,42,0.00,,,0.00,0.000000,,2013-01-08 13:53:00,
2013-01-08 07:12:00,24.0,4.0,-100.00,NNE,31,4.0,5.0,41,0.00,,,0.00,0.000000,,2013-01-08 14:12:00,
2013-01-08 07:43:00,24.0,4.0,-100.00,NNE,31,4.0,5.0,41,0.00,,,0.00,0.000000,,2013-01-08 14:43:00,
2013-01-08 07:53:00,24.0,4.0,-100.00,NNE,31,4.0,5.0,41,0.00,,,0.00,0.000000,,2013-01-08 14:53:00,
2013-01-08 08:33:00,28.0,3.0,-100.00,East,80,2.0,6.0,33,-99.99,,,0.00,39.000000,,2013-01-08 15:33:00,
2013-01-08 08:43:00,28.0,3.0,-100.00,East,80,2.0,6.0,33,-99.99,,,0.00,39.000000,,2013-01-08 15:43:00,
2013-01-08 08:53:00,28.0,3.0,-100.00,East,80,2.0,6.0,33,-99.99,,,0.00,39.000000,,2013-01-08 15:53:00,
2013-01-08 09:02:00,28.0,3.0,-100.00,East,80,2.0,6.0,33,-99.99,,,0.00,39.000000,,2013-01-08 16:02:00,
2013-01-08 09:34:00,35.0,6.0,-100.00,ESE,114,2.0,5.0,29,-99.99,,,0.00,193.000000,,2013-01-08 16:34:00,
2013-01-08 10:12:00,32.0,6.0,-100.00,NW,324,4.0,6.0,33,0.00,,,0.00,334.000000,,2013-01-08 17:12:00,
2013-01-08 10:43:00,32.0,6.0,-100.00,NW,324,4.0,6.0,33,0.00,,,0.00,334.000000,,2013-01-08 17:43:00,
2013-01-08 10:53:00,32.0,6.0,-100.00,NW,324,4.0,6.0,33,0.00,,,0.00,334.000000,,2013-01-08 17:53:00,
2013-01-08 11:03:00,32.0,6.0,-100.00,NW,324,4.0,6.0,33,0.00,,,0.00,334.000000,,2013-01-08 18:03:00,
2013-01-08 11:12:00,35.0,8.0,-100.00,WSW,247,2.0,7.0,32,0.00,,,0.00,371.000000,,2013-01-08 18:12:00,
2013-01-08 11:33:00,35.0,8.0,-100.00,WSW,247,2.0,7.0,32,0.00,,,0.00,371.000000,,2013-01-08 18:33:00,
2013-01-08 11:43:00,35.0,8.0,-100.00,WSW,247,2.0,7.0,32,0.00,,,0.00,371.000000,,2013-01-08 18:43:00,
2013-01-08 11:53:00,35.0,8.0,-100.00,WSW,247,2.0,7.0,32,0.00,,,0.00,371.000000,,2013-01-08 18:53:00,
2013-01-08 12:02:00,35.0,8.0,-100.00,WSW,247,2.0,7.0,32,0.00,,,0.00,371.000000,,2013-01-08 19:02:00,
2013-01-08 12:12:00,38.0,9.0,-100.00,NNW,340,3.0,6.0,29,0.00,,,0.00,457.000000,,2013-01-08 19:12:00,
2013-01-08 12:43:00,38.0,9.0,-100.00,NNW,340,3.0,6.0,29,0.00,,,0.00,457.000000,,2013-01-08 19:43:00,
2013-01-08 12:53:00,38.0,9.0,-100.00,NNW,340,3.0,6.0,29,0.00,,,0.00,457.000000,,2013-01-08 19:53:00,
2013-01-08 13:02:00,38.0,9.0,-100.00,NNW,340,3.0,6.0,29,0.00,,,0.00,457.000000,,2013-01-08 20:02:00,
2013-01-08 13:12:00,41.0,13.0,-100.00,WSW,251,2.0,4.0,32,0.00,,,-99.99,413.000000,,2013-01-08 20:12:00,
2013-01-08 13:33:00,41.0,13.0,-100.00,WSW,251,2.0,4.0,32,0.00,,,-99.99,413.000000,,2013-01-08 20:33:00,
2013-01-08 13:43:00,41.0,13.0,-100.00,WSW,251,2.0,4.0,32,0.00,,,-99.99,413.000000,,2013-01-08 20:43:00,
2013-01-08 13:53:00,41.0,13.0,-100.00,WSW,251,2.0,4.0,32,0.00,,,-99.99,413.000000,,2013-01-08 20:53:00,
2013-01-08 14:02:00,41.0,13.0,-100.00,WSW,251,2.0,4.0,32,0.00,,,-99.99,413.000000,,2013-01-08 21:02:00,
2013-01-08 14:12:00,39.0,13.0,-100.00,South,189,3.0,6.0,34,0.00,,,0.00,438.000000,,2013-01-08 21:12:00,
2013-01-08 14:43:00,39.0,13.0,-100.00,South,189,3.0,6.0,34,0.00,,,0.00,438.000000,,2013-01-08 21:43:00,
2013-01-08 14:53:00,39.0,13.0,-100.00,South,189,3.0,6.0,34,0.00,,,0.00,438.000000,,2013-01-08 21:53:00,
2013-01-08 15:02:00,39.0,13.0,-100.00,South,189,3.0,6.0,34,0.00,,,0.00,438.000000,,2013-01-08 22:02:00,
2013-01-08 15:12:00,36.0,12.0,-100.00,SW,219,3.0,6.0,37,0.00,,,0.00,253.000000,,2013-01-08 22:12:00,
2013-01-08 15:33:00,36.0,12.0,-100.00,SW,219,3.0,6.0,37,0.00,,,0.00,253.000000,,2013-01-08 22:33:00,
2013-01-08 15:43:00,36.0,12.0,-100.00,SW,219,3.0,6.0,37,0.00,,,0.00,253.000000,,2013-01-08 22:43:00,
2013-01-08 15:53:00,36.0,12.0,-100.00,SW,219,3.0,6.0,37,0.00,,,0.00,253.000000,,2013-01-08 22:53:00,
2013-01-08 16:02:00,36.0,12.0,-100.00,SW,219,3.0,6.0,37,0.00,,,0.00,253.000000,,2013-01-08 23:02:00,
2013-01-08 16:12:00,31.0,10.0,-100.00,WSW,258,3.0,6.0,40,0.00,,,0.00,99.000000,,2013-01-08 23:12:00,
2013-01-08 16:33:00,31.0,10.0,-100.00,WSW,258,3.0,6.0,40,0.00,,,0.00,99.000000,,2013-01-08 23:33:00,
2013-01-08 16:43:00,31.0,10.0,-100.00,WSW,258,3.0,6.0,40,0.00,,,0.00,99.000000,,2013-01-08 23:43:00,
2013-01-08 16:53:00,31.0,10.0,-100.00,WSW,258,3.0,6.0,40,0.00,,,0.00,99.000000,,2013-01-08 23:53:00,
2013-01-08 17:02:00,31.0,10.0,-100.00,WSW,258,3.0,6.0,40,0.00,,,0.00,99.000000,,2013-01-09 00:02:00,
2013-01-08 17:12:00,28.0,9.0,-100.00,NW,326,4.0,5.0,45,0.00,,,0.00,32.000000,,2013-01-09 00:12:00,
2013-01-08 17:43:00,28.0,9.0,-100.00,NW,326,4.0,5.0,45,0.00,,,0.00,32.000000,,2013-01-09 00:43:00,
2013-01-08 17:52:00,28.0,9.0,-100.00,NW,326,4.0,5.0,45,0.00,,,0.00,32.000000,,2013-01-09 00:52:00,
2013-01-08 18:02:00,28.0,9.0,-100.00,NW,326,4.0,5.0,45,0.00,,,0.00,32.000000,,2013-01-09 01:02:00,
2013-01-08 18:12:00,27.0,10.0,-100.00,NE,44,3.0,5.0,48,0.00,,,0.00,1.000000,,2013-01-09 01:12:00,
2013-01-08 18:33:00,27.0,10.0,-100.00,NE,44,3.0,5.0,48,0.00,,,0.00,1.000000,,2013-01-09 01:33:00,
2013-01-08 18:42:00,27.0,10.0,-100.00,NE,44,3.0,5.0,48,0.00,,,0.00,1.000000,,2013-01-09 01:42:00,
2013-01-08 18:52:00,27.0,10.0,-100.00,NE,44,3.0,5.0,48,0.00,,,0.00,1.000000,,2013-01-09 01:52:00,
2013-01-08 19:02:00,27.0,10.0,-100.00,NE,44,3.0,5.0,48,0.00,,,0.00,1.000000,,2013-01-09 02:02:00,
2013-01-08 19:33:00,27.0,8.0,-100.00,North,354,7.0,9.0,44,0.00,,,0.00,0.000000,,2013-01-09 02:33:00,
2013-01-08 19:43:00,27.0,8.0,-100.00,North,354,7.0,9.0,44,0.00,,,0.00,0.000000,,2013-01-09 02:43:00,
2013-01-08 19:53:00,27.0,8.0,-100.00,North,354,7.0,9.0,44,0.00,,,0.00,0.000000,,2013-01-09 02:53:00,
2013-01-08 20:02:00,27.0,8.0,-100.00,North,354,7.0,9.0,44,0.00,,,0.00,0.000000,,2013-01-09 03:02:00,
2013-01-08 20:11:00,27.0,8.0,-100.00,North,354,7.0,9.0,44,0.00,,,0.00,0.000000,,2013-01-09 03:11:00,
2013-01-08 20:33:00,29.0,7.0,-100.00,North,352,7.0,7.0,39,0.00,,,0.00,0.000000,,2013-01-09 03:33:00,
2013-01-08 20:43:00,29.0,7.0,-100.00,North,352,7.0,7.0,39,0.00,,,0.00,0.000000,,2013-01-09 03:43:00,
2013-01-08 20:52:00,29.0,7.0,-100.00,North,352,7.0,7.0,39,0.00,,,0.00,0.000000,,2013-01-09 03:52:00,
2013-01-08 21:11:00,29.0,7.0,-100.00,North,352,7.0,7.0,39,0.00,,,0.00,0.000000,,2013-01-09 04:11:00,
2013-01-08 21:33:00,30.0,6.0,-100.00,North,356,7.0,10.0,36,0.00,,,0.00,0.000000,,2013-01-09 04:33:00,
2013-01-08 21:43:00,30.0,6.0,-100.00,North,356,7.0,10.0,36,0.00,,,0.00,0.000000,,2013-01-09 04:43:00,
2013-01-08 21:52:00,30.0,6.0,-100.00,North,356,7.0,10.0,36,0.00,,,0.00,0.000000,,2013-01-09 04:52:00,
2013-01-08 22:33:00,34.0,5.0,-100.00,North,352,5.0,9.0,29,-99.99,,,0.00,0.000000,,2013-01-09 05:33:00,
2013-01-08 23:32:00,34.0,4.0,-100.00,NNW,346,6.0,7.0,27,-99.99,,,0.00,0.000000,,2013-01-09 06:32:00,